Time,TemperatureF,DewpointF,PressureIn,WindDirection,WindDirectionDegrees,WindSpeedMPH,WindSpeedGustMPH,Humidity,HourlyPrecipIn,Conditions,Clouds,dailyrainin,SoftwareType,DateUTC
2013-02-21 00:04:00,33.3,13.0,30.15,NW,323,1.0,2.0,44,0.00,,,0.00,weatherlink.com 1.10,2013-02-21 05:04:00,
2013-02-21 00:19:00,32.4,13.0,30.16,NW,325,0.0,1.0,44,0.00,,,0.00,weatherlink.com 1.10,2013-02-21 05:19:00,
2013-02-21 00:34:00,31.6,13.0,30.16,NW,325,0.0,1.0,46,0.00,,,0.00,weatherlink.com 1.10,2013-02-21 05:34:00,
2013-02-21 00:49:00,30.4,13.0,30.15,NW,325,0.0,2.0,49,0.00,,,0.00,weatherlink.com 1.10,2013-02-21 05:49:00,
2013-02-21 01:04:00,30.1,15.0,30.15,NE,44,0.0,2.0,54,0.00,,,0.00,weatherlink.com 1.10,2013-02-21 06:04:00,
2013-02-21 01:19:00,29.3,15.0,30.15,NE,44,0.0,1.0,55,0.00,,,0.00,weatherlink.com 1.10,2013-02-21 06:19:00,
2013-02-21 01:34:00,29.0,14.0,30.15,NE,44,1.0,2.0,53,0.00,,,0.00,weatherlink.com 1.10,2013-02-21 06:34:00,
2013-02-21 01:49:00,28.8,15.0,30.14,NNE,32,0.0,3.0,57,0.00,,,0.00,weatherlink.com 1.10,2013-02-21 06:49:00,
2013-02-21 02:04:00,27.9,16.0,30.14,NNE,15,0.0,1.0,60,0.00,,,0.00,weatherlink.com 1.10,2013-02-21 07:04:00,
2013-02-21 02:19:00,27.5,16.0,30.15,SW,223,0.0,0.0,62,0.00,,,0.00,weatherlink.com 1.10,2013-02-21 07:19:00,
2013-02-21 02:34:00,27.2,14.0,30.15,SW,223,1.0,1.0,59,0.00,,,0.00,weatherlink.com 1.10,2013-02-21 07:34:00,
2013-02-21 02:49:00,27.9,14.0,30.16,NNE,26,0.0,3.0,57,0.00,,,0.00,weatherlink.com 1.10,2013-02-21 07:49:00,
2013-02-21 03:04:00,28.2,15.0,30.16,NNE,26,0.0,1.0,58,0.00,,,0.00,weatherlink.com 1.10,2013-02-21 08:04:00,
2013-02-21 03:19:00,28.4,14.0,30.16,NNE,28,0.0,2.0,56,0.00,,,0.00,weatherlink.com 1.10,2013-02-21 08:19:00,
2013-02-21 03:34:00,28.0,15.0,30.16,NW,323,1.0,3.0,58,0.00,,,0.00,weatherlink.com 1.10,2013-02-21 08:34:00,
2013-02-21 03:49:00,28.6,15.0,30.16,WNW,303,0.0,3.0,57,0.00,,,0.00,weatherlink.com 1.10,2013-02-21 08:49:00,
2013-02-21 04:04:00,28.4,15.0,30.16,NNW,331,0.0,4.0,57,0.00,,,0.00,weatherlink.com 1.10,2013-02-21 09:04:00,
2013-02-21 04:19:00,28.2,15.0,30.16,SW,221,0.0,3.0,57,0.00,,,0.00,weatherlink.com 1.10,2013-02-21 09:19:00,
2013-02-21 04:34:00,27.8,14.0,30.16,NW,304,0.0,1.0,57,0.00,,,0.00,weatherlink.com 1.10,2013-02-21 09:34:00,
2013-02-21 04:49:00,27.0,14.0,30.17,NW,304,0.0,0.0,59,0.00,,,0.00,weatherlink.com 1.10,2013-02-21 09:49:00,
2013-02-21 05:04:00,26.5,14.0,30.17,NW,304,0.0,1.0,59,0.00,,,0.00,weatherlink.com 1.10,2013-02-21 10:04:00,
2013-02-21 05:19:00,26.1,14.0,30.17,NW,304,0.0,1.0,60,0.00,,,0.00,weatherlink.com 1.10,2013-02-21 10:19:00,
2013-02-21 05:35:00,25.4,14.0,30.18,NW,304,0.0,0.0,61,0.00,,,0.00,weatherlink.com 1.10,2013-02-21 10:35:00,
2013-02-21 05:50:00,25.0,14.0,30.19,NW,304,0.0,0.0,63,0.00,,,0.00,weatherlink.com 1.10,2013-02-21 10:50:00,
2013-02-21 06:05:00,24.5,15.0,30.19,NW,304,0.0,0.0,66,0.00,,,0.00,weatherlink.com 1.10,2013-02-21 11:05:00,
2013-02-21 06:20:00,23.8,14.0,30.19,NW,304,0.0,0.0,66,0.00,,,0.00,weatherlink.com 1.10,2013-02-21 11:20:00,
2013-02-21 06:35:00,23.2,14.0,30.20,NW,304,0.0,0.0,68,0.00,,,0.00,weatherlink.com 1.10,2013-02-21 11:35:00,
2013-02-21 06:50:00,22.9,13.0,30.20,NW,304,0.0,0.0,67,0.00,,,0.00,weatherlink.com 1.10,2013-02-21 11:50:00,
2013-02-21 07:05:00,23.2,14.0,30.21,NW,304,0.0,0.0,67,0.00,,,0.00,weatherlink.com 1.10,2013-02-21 12:05:00,
2013-02-21 07:20:00,23.4,14.0,30.21,NW,304,0.0,1.0,68,0.00,,,0.00,weatherlink.com 1.10,2013-02-21 12:20:00,
2013-02-21 07:35:00,24.5,15.0,30.21,NNW,334,0.0,2.0,67,0.00,,,0.00,weatherlink.com 1.10,2013-02-21 12:35:00,
2013-02-21 07:50:00,24.9,15.0,30.21,SSE,159,0.0,1.0,65,0.00,,,0.00,weatherlink.com 1.10,2013-02-21 12:50:00,
2013-02-21 08:05:00,25.2,15.0,30.22,SSE,158,0.0,1.0,64,0.00,,,0.00,weatherlink.com 1.10,2013-02-21 13:05:00,
2013-02-21 08:20:00,26.3,16.0,30.22,NNE,28,0.0,3.0,66,0.00,,,0.00,weatherlink.com 1.10,2013-02-21 13:20:00,
2013-02-21 08:35:00,27.6,16.0,30.23,West,277,0.0,2.0,63,0.00,,,0.00,weatherlink.com 1.10,2013-02-21 13:35:00,
2013-02-21 08:50:00,30.6,15.0,30.23,NW,311,1.0,5.0,52,0.00,,,0.00,weatherlink.com 1.10,2013-02-21 13:50:00,
2013-02-21 09:05:00,32.4,15.0,30.24,WNW,290,0.0,3.0,49,0.00,,,0.00,weatherlink.com 1.10,2013-02-21 14:05:00,
2013-02-21 09:20:00,33.5,15.0,30.23,North,360,0.0,6.0,47,0.00,,,0.00,weatherlink.com 1.10,2013-02-21 14:20:00,
2013-02-21 09:35:00,34.7,15.0,30.23,NNE,23,3.0,5.0,44,0.00,,,0.00,weatherlink.com 1.10,2013-02-21 14:35:00,
2013-02-21 09:50:00,36.9,15.0,30.24,NNW,336,2.0,4.0,41,0.00,,,0.00,weatherlink.com 1.10,2013-02-21 14:50:00,
2013-02-21 10:05:00,38.8,15.0,30.23,NW,311,1.0,5.0,38,0.00,,,0.00,weatherlink.com 1.10,2013-02-21 15:05:00,
2013-02-21 10:20:00,39.6,13.0,30.23,West,261,5.0,8.0,34,0.00,,,0.00,weatherlink.com 1.10,2013-02-21 15:20:00,
2013-02-21 10:35:00,42.0,15.0,30.23,WNW,287,3.0,6.0,33,0.00,,,0.00,weatherlink.com 1.10,2013-02-21 15:35:00,
2013-02-21 10:50:00,42.5,15.0,30.23,NNE,14,5.0,5.0,33,0.00,,,0.00,weatherlink.com 1.10,2013-02-21 15:50:00,
2013-02-21 11:05:00,44.1,15.0,30.23,WSW,257,5.0,6.0,31,0.00,,,0.00,weatherlink.com 1.10,2013-02-21 16:05:00,
2013-02-21 11:21:00,45.2,15.0,30.23,NNW,333,3.0,7.0,29,0.00,,,0.00,weatherlink.com 1.10,2013-02-21 16:21:00,
2013-02-21 11:36:00,45.8,15.0,30.23,NNW,347,0.0,7.0,29,0.00,,,0.00,weatherlink.com 1.10,2013-02-21 16:36:00,
2013-02-21 11:51:00,47.1,15.0,30.22,WNW,285,1.0,5.0,28,0.00,,,0.00,weatherlink.com 1.10,2013-02-21 16:51:00,
2013-02-21 12:06:00,48.6,16.0,30.21,SSW,207,1.0,4.0,27,0.00,,,0.00,weatherlink.com 1.10,2013-02-21 17:06:00,
2013-02-21 12:21:00,50.5,15.0,30.21,South,188,5.0,6.0,24,0.00,,,0.00,weatherlink.com 1.10,2013-02-21 17:21:00,
2013-02-21 12:36:00,50.8,16.0,30.20,NW,317,5.0,7.0,25,0.00,,,0.00,weatherlink.com 1.10,2013-02-21 17:36:00,
2013-02-21 12:51:00,49.4,16.0,30.19,North,355,3.0,8.0,26,0.00,,,0.00,weatherlink.com 1.10,2013-02-21 17:51:00,
2013-02-21 13:06:00,50.8,15.0,30.18,East,98,5.0,7.0,24,0.00,,,0.00,weatherlink.com 1.10,2013-02-21 18:06:00,
2013-02-21 13:21:00,50.7,15.0,30.18,SE,138,4.0,6.0,24,0.00,,,0.00,weatherlink.com 1.10,2013-02-21 18:21:00,
2013-02-21 13:36:00,53.0,17.0,30.16,SW,216,2.0,7.0,24,0.00,,,0.00,weatherlink.com 1.10,2013-02-21 18:36:00,
2013-02-21 13:51:00,53.2,16.0,30.16,ESE,113,3.0,4.0,23,0.00,,,0.00,weatherlink.com 1.10,2013-02-21 18:51:00,
2013-02-21 14:06:00,54.7,14.0,30.14,ENE,78,1.0,7.0,20,0.00,,,0.00,weatherlink.com 1.10,2013-02-21 19:06:00,
2013-02-21 14:21:00,54.1,16.0,30.15,WNW,302,1.0,5.0,22,0.00,,,0.00,weatherlink.com 1.10,2013-02-21 19:21:00,
2013-02-21 14:36:00,54.8,16.0,30.14,SE,124,4.0,5.0,22,0.00,,,0.00,weatherlink.com 1.10,2013-02-21 19:36:00,
2013-02-21 14:51:00,56.2,15.0,30.13,WSW,257,5.0,6.0,20,0.00,,,0.00,weatherlink.com 1.10,2013-02-21 19:51:00,
2013-02-21 15:06:00,56.3,16.0,30.12,North,355,1.0,5.0,20,0.00,,,0.00,weatherlink.com 1.10,2013-02-21 20:06:00,
2013-02-21 15:21:00,57.2,14.0,30.13,SSW,213,3.0,5.0,18,0.00,,,0.00,weatherlink.com 1.10,2013-02-21 20:21:00,
2013-02-21 15:36:00,56.2,14.0,30.14,NW,313,2.0,5.0,19,0.00,,,0.00,weatherlink.com 1.10,2013-02-21 20:36:00,
2013-02-21 15:51:00,56.3,13.0,30.12,WNW,285,2.0,3.0,18,0.00,,,0.00,weatherlink.com 1.10,2013-02-21 20:51:00,
2013-02-21 16:06:00,55.0,13.0,30.14,WNW,286,3.0,4.0,19,0.00,,,0.00,weatherlink.com 1.10,2013-02-21 21:06:00,
2013-02-21 16:21:00,55.3,13.0,30.13,SW,235,2.0,4.0,19,0.00,,,0.00,weatherlink.com 1.10,2013-02-21 21:21:00,
2013-02-21 16:36:00,55.8,15.0,30.14,WNW,297,0.0,3.0,20,0.00,,,0.00,weatherlink.com 1.10,2013-02-21 21:36:00,
2013-02-21 16:51:00,55.9,14.0,30.15,West,273,2.0,5.0,19,0.00,,,0.00,weatherlink.com 1.10,2013-02-21 21:51:00,
2013-02-21 17:06:00,54.5,12.0,30.16,West,277,0.0,2.0,18,0.00,,,0.00,weatherlink.com 1.10,2013-02-21 22:06:00,
2013-02-21 17:21:00,54.0,14.0,30.15,WNW,300,1.0,2.0,20,0.00,,,0.00,weatherlink.com 1.10,2013-02-21 22:21:00,
2013-02-21 17:36:00,53.5,13.0,30.16,North,5,0.0,2.0,20,0.00,,,0.00,weatherlink.com 1.10,2013-02-21 22:36:00,
2013-02-21 17:51:00,52.1,15.0,30.17,SE,141,0.0,2.0,23,0.00,,,0.00,weatherlink.com 1.10,2013-02-21 22:51:00,
2013-02-21 18:06:00,50.6,15.0,30.17,East,84,1.0,3.0,24,0.00,,,0.00,weatherlink.com 1.10,2013-02-21 23:06:00,
2013-02-21 18:21:00,49.4,17.0,30.17,East,82,0.0,2.0,27,0.00,,,0.00,weatherlink.com 1.10,2013-02-21 23:21:00,
2013-02-21 18:36:00,48.3,17.0,30.16,NE,51,0.0,5.0,29,0.00,,,0.00,weatherlink.com 1.10,2013-02-21 23:36:00,
2013-02-21 18:51:00,47.6,17.0,30.17,North,360,2.0,5.0,30,0.00,,,0.00,weatherlink.com 1.10,2013-02-21 23:51:00,
2013-02-21 19:06:00,47.0,17.0,30.20,East,80,1.0,2.0,30,0.00,,,0.00,weatherlink.com 1.10,2013-02-22 00:06:00,
2013-02-21 19:21:00,46.4,17.0,30.21,ESE,121,0.0,3.0,31,0.00,,,0.00,weatherlink.com 1.10,2013-02-22 00:21:00,
2013-02-21 19:36:00,45.9,18.0,30.21,SE,144,0.0,2.0,33,0.00,,,0.00,weatherlink.com 1.10,2013-02-22 00:36:00,
2013-02-21 19:51:00,45.2,17.0,30.20,East,86,0.0,3.0,33,0.00,,,0.00,weatherlink.com 1.10,2013-02-22 00:51:00,
2013-02-21 20:06:00,44.8,17.0,30.21,ENE,61,1.0,3.0,33,0.00,,,0.00,weatherlink.com 1.10,2013-02-22 01:06:00,
2013-02-21 20:21:00,44.6,18.0,30.20,East,82,1.0,3.0,34,0.00,,,0.00,weatherlink.com 1.10,2013-02-22 01:21:00,
2013-02-21 20:36:00,44.3,18.0,30.20,East,92,1.0,3.0,35,0.00,,,0.00,weatherlink.com 1.10,2013-02-22 01:36:00,
2013-02-21 20:51:00,43.8,19.0,30.22,East,97,0.0,2.0,37,0.00,,,0.00,weatherlink.com 1.10,2013-02-22 01:51:00,
2013-02-21 21:06:00,43.6,19.0,30.21,North,5,0.0,4.0,38,0.00,,,0.00,weatherlink.com 1.10,2013-02-22 02:06:00,
2013-02-21 21:21:00,43.4,19.0,30.21,ENE,74,1.0,3.0,37,0.00,,,0.00,weatherlink.com 1.10,2013-02-22 02:21:00,
2013-02-21 21:36:00,43.4,19.0,30.23,East,82,0.0,5.0,38,0.00,,,0.00,weatherlink.com 1.10,2013-02-22 02:36:00,
2013-02-21 21:51:00,43.1,18.0,30.24,South,187,0.0,2.0,37,0.00,,,0.00,weatherlink.com 1.10,2013-02-22 02:51:00,
2013-02-21 22:06:00,42.6,20.0,30.26,South,186,0.0,1.0,40,0.00,,,0.00,weatherlink.com 1.10,2013-02-22 03:06:00,
2013-02-21 22:21:00,42.1,19.0,30.25,ESE,111,0.0,2.0,39,0.00,,,0.00,weatherlink.com 1.10,2013-02-22 03:21:00,
2013-02-21 22:36:00,41.8,20.0,30.24,SE,138,0.0,2.0,41,0.00,,,0.00,weatherlink.com 1.10,2013-02-22 03:36:00,
2013-02-21 22:51:00,41.6,19.0,30.24,NNE,24,1.0,3.0,40,0.00,,,0.00,weatherlink.com 1.10,2013-02-22 03:51:00,
2013-02-21 23:06:00,41.6,20.0,30.24,East,81,2.0,3.0,42,0.00,,,0.00,weatherlink.com 1.10,2013-02-22 04:06:00,
2013-02-21 23:21:00,41.7,22.0,30.25,East,81,0.0,4.0,45,0.00,,,0.00,weatherlink.com 1.10,2013-02-22 04:21:00,
2013-02-21 23:36:00,41.6,20.0,30.27,NNE,23,2.0,4.0,42,0.00,,,0.00,weatherlink.com 1.10,2013-02-22 04:36:00,
2013-02-21 23:52:00,41.7,19.0,30.29,NE,44,0.0,3.0,41,0.00,,,0.00,weatherlink.com 1.10,2013-02-22 04:52:00,